Flag for U.S.A. Weather past 2 weeks in Orlando, Florida, U.S.A.

Now
64 °F

Overcast.


Feels Like: 64 °F
Forecast: 56 / 65 °F
Wind: 7 mph from North

Location: Orlando Executive Airport

Current Time: Dec 25, 2014 at 2:21:39 PM

Latest Report: Dec 25, 2014 at 1:53 PM


Visibility: 10 mi

Pressure: 30.19 "Hg

Humidity: 54%

Dew point: 47 °F

Location of OrlandoLocation

Historic Weather in Orlando — Graph

°F

Orlando temperature yesterday

Maximum temperature yesterday: 84 °F (at 1:53 PM)
Minimum temperature yesterday: 65 °F (at 11:53 PM)
Average temperature yesterday: 76 °F

Past Weeks' High & Low Weather Summary

 TemperatureHumidityPressure
High84 °F (Dec 24, 1:53 PM)100% (Dec 15, 7:53 AM)30.29 "Hg (Dec 15, 7:53 AM)
Low43 °F (Dec 13, 3:53 AM)21% (Dec 13, 1:53 PM)29.83 "Hg (Dec 24, 2:53 PM)
Average62 °F70%30.10 "Hg
* Reported Dec 10 12:53 PM — Dec 25 12:53 PM, Orlando, Weather by CustomWeather, © 2014

Note: Actual official high and low records may vary slightly from our data, if they occured in-between our weather recording intervals... More about our weather records

Advertising

Orlando weather history for previous 24 hours

 ConditionsComfort  
Time TempWeatherWind HumidityBarometerVisibility
12:53 PM
Dec 25
63 °FOvercast.7 mph54%30.20 "Hg10 mi
11:53 AM63 °FOvercast.6 mph54%30.21 "Hg10 mi
10:53 AM62 °FOvercast.7 mph58%30.24 "Hg10 mi
9:53 AM62 °FOvercast.10 mph60%30.22 "Hg10 mi
8:53 AM60 °FSunny.7 mph67%30.19 "Hg10 mi
7:53 AM59 °FSunny.7 mph62%30.15 "Hg10 mi
6:53 AM58 °FClear.6 mph72%30.11 "Hg10 mi
5:53 AM60 °FPassing clouds.5 mph67%30.08 "Hg10 mi
4:53 AM63 °FMostly cloudy.15 mph73%30.06 "Hg10 mi
3:53 AM63 °FPassing clouds.9 mph87%30.02 "Hg10 mi
2:53 AM64 °FPassing clouds.9 mph87%30.00 "Hg10 mi
1:53 AM65 °FPassing clouds.10 mph87%29.98 "Hg10 mi
12:53 AM65 °FOvercast.8 mph87%29.97 "Hg10 mi
11:53 PM
Dec 24
65 °FPassing clouds.7 mph87%29.97 "Hg10 mi
10:59 PM66 °FLight rain. Mostly cloudy.15 mph87%29.99 "Hg8 mi
9:56 PM71 °FLight rain. Overcast.18 mph93%29.93 "Hg10 mi
9:03 PM72 °FHeavy rain. Fog.15 mph91%29.90 "Hg3 mi
8:57 PM73 °FRain. Fog.15 mph88%29.89 "Hg2 mi
7:53 PM78 °FPartly cloudy.13 mph79%29.88 "Hg10 mi
6:53 PM79 °FPassing clouds.15 mph77%29.87 "Hg10 mi
5:53 PM80 °FMostly cloudy.9 mph71%29.85 "Hg10 mi
4:53 PM81 °FPartly sunny.9 mph72%29.83 "Hg10 mi
3:53 PM83 °FPartly sunny.13 mph65%29.84 "Hg10 mi
2:53 PM82 °FBroken clouds.15 mph67%29.83 "Hg10 mi
Weather by CustomWeather, © 2014

See weather overviewHow to use our weather pages